{"data":{"norad_id":60501,"epoch":"2026-09-19T12:16:04.417536Z","epoch_age_seconds":99811,"freshness":"FRESH","line1":"1 60501U 24149AK  26262.51116224  .00031410  00000+0  63057-3 0  9994","line2":"2 60501  97.3642 347.9630 0002374 286.0569  74.0419 15.46616489116912","mean_motion":15.46616489,"eccentricity":0.0002374,"inclination_deg":97.3642,"raan_deg":347.963,"arg_perigee_deg":286.0569,"mean_anomaly_deg":74.0419,"bstar":0.00063057,"rev_number":11691,"period_min":93.106468878465,"perigee_km":425.0170242863,"apogee_km":428.24792883377,"semimajor_km":6804.76947656,"source":"CELESTRAK","updated_at":"2026-09-20T09:00:34.714033Z"}}